Location: Dyersburg
(36.0438°N, 89.3789°W)
Time: 21:42:02
(UTC+00:00)

Vanguard 2 Rocket - All Passes

Search period start: 28 February 2020 00:00
Search period end: 09 March 2020 00:00
Orbit: 553 x 3327 km, 32.9° (Epoch: 27 February)

Date Brightness Start Highest point End Pass type
(mag) Time Alt. Az. Time Alt. Az. Time Alt. Az.
28 Feb - 02:04:55 10° W 02:24:37 80° S 02:37:02 10° E visible
28 Feb - 04:24:51 10° W 04:40:45 63° SSW 04:49:45 10° ESE visible
28 Feb - 06:45:16 10° W 06:53:44 24° SW 06:59:29 10° S visible
28 Feb - 20:33:59 10° S 20:48:07 28° SE 21:03:13 10° E daylight
28 Feb - 22:45:34 10° SW 23:04:44 57° SSE 23:21:56 10° E daylight
29 Feb - 01:02:21 10° WSW 01:22:50 78° S 01:37:11 10° E visible
29 Feb - 03:21:55 10° W 03:40:03 73° SSW 03:50:41 10° ESE visible
29 Feb - 05:42:05 10° W 05:54:22 37° SW 06:01:51 10° SSE visible
29 Feb - 19:36:39 10° SSE 19:47:11 19° SE 19:58:50 10° E daylight
29 Feb - 21:45:13 10° SW 22:02:51 48° SSE 22:20:36 10° E daylight
01 Mar - 00:00:18 10° WSW 00:20:44 74° SSE 00:36:54 10° E visible
01 Mar - 02:19:02 10° W 02:38:46 79° S 02:51:14 10° ESE visible
01 Mar - 04:39:03 10° W 04:54:29 52° SSW 05:03:30 10° SE visible
01 Mar - 07:01:13 10° W 07:06:49 15° SW 07:11:13 10° SSW night (unlit)
01 Mar - 18:46:04 10° SE 18:46:39 10° SE 18:47:13 10° SE daylight
01 Mar - 20:45:42 10° SSW 21:01:17 38° SE 21:18:31 10° E daylight
01 Mar - 22:58:54 10° WSW 23:18:29 67° SSE 23:36:13 10° E daylight
02 Mar - 01:16:25 10° W 01:36:58 80° S 01:51:24 10° E visible
02 Mar - 03:36:04 10° W 03:53:58 64° SSW 04:04:38 10° ESE visible
02 Mar - 05:56:51 10° W 06:07:36 27° SW 06:14:44 10° S visible
02 Mar - 19:47:12 10° S 20:00:11 28° SE 20:15:23 10° E daylight
02 Mar - 21:58:13 10° SW 22:16:21 59° SSE 22:35:00 10° E daylight
03 Mar - 00:14:13 10° WSW 00:34:47 79° S 00:51:08 10° E visible
03 Mar - 02:33:11 10° W 02:52:49 74° SSW 03:05:20 10° ESE visible
03 Mar - 04:53:25 10° W 05:07:55 40° SW 05:16:54 10° SSE visible
03 Mar - 18:50:12 10° SSE 18:59:34 18° SE 19:10:31 10° E daylight
03 Mar - 20:58:15 10° SW 21:14:33 49° SSE 21:33:11 10° E daylight
03 Mar - 23:12:37 10° WSW 23:32:24 75° SSE 23:50:26 10° E daylight
04 Mar - 01:30:33 10° W 01:51:06 79° S 02:05:34 10° ESE visible
04 Mar - 03:50:16 10° W 04:07:38 54° SSW 04:18:21 10° SE visible
04 Mar - 06:12:33 10° W 06:20:36 18° SW 06:26:39 10° SSW visible
04 Mar - 19:59:07 10° SSW 20:13:13 38° SE 20:30:38 10° E daylight
04 Mar - 22:11:39 10° WSW 22:30:03 68° SSE 22:49:15 10° E daylight
05 Mar - 00:28:18 10° W 00:48:54 81° S 01:05:20 10° E visible
05 Mar - 02:47:21 10° W 03:06:42 66° SSW 03:19:15 10° SE visible
05 Mar - 05:08:08 10° W 05:21:06 30° SW 05:29:45 10° SSE visible
05 Mar - 19:00:57 10° S 19:12:28 27° SE 19:27:04 10° E daylight
05 Mar - 21:11:23 10° SW 21:27:59 59° SSE 21:47:32 10° E daylight
05 Mar - 23:26:34 10° WSW 23:46:26 80° S 00:04:38 10° E daylight
06 Mar - 01:44:43 10° W 02:05:07 74° SSW 02:19:38 10° ESE visible
06 Mar - 04:04:37 10° W 04:21:02 43° SW 04:31:41 10° SSE visible
06 Mar - 06:32:09 10° WSW 06:33:28 10° SW 06:34:43 10° SW visible
06 Mar - 18:04:21 10° SSE 18:12:13 17° SE 18:21:46 10° E daylight
06 Mar - 20:11:49 10° SW 20:26:24 48° SE 20:45:15 10° E daylight
06 Mar - 22:25:26 10° WSW 22:43:56 76° SSE 23:03:27 10° E daylight
07 Mar - 00:42:28 10° W 01:03:01 79° S 01:19:30 10° ESE visible
07 Mar - 03:01:32 10° W 03:20:20 55° SSW 03:32:53 10° SE visible
07 Mar - 05:23:42 10° W 05:34:02 21° SW 05:41:43 10° S visible
07 Mar - 19:13:01 10° SSW 19:25:26 37° SE 19:42:16 10° E daylight
07 Mar - 21:24:56 10° WSW 21:41:40 69° SSE 22:01:45 10° E daylight
07 Mar - 23:40:41 10° W 00:00:33 81° S 00:18:50 10° E daylight
08 Mar - 01:58:53 10° W 02:18:58 66° SSW 02:33:30 10° SE visible
08 Mar - 04:19:19 10° W 04:34:09 32° SW 04:44:28 10° SSE visible
08 Mar - 18:15:09 10° S 18:25:04 25° SE 18:38:23 10° E daylight
08 Mar - 20:25:05 10° SW 20:39:50 59° SSE 20:59:33 10° E daylight
08 Mar - 22:39:28 10° WSW 22:57:58 80° S 23:17:39 10° E daylight
